CDT,Max TemperatureF,Mean TemperatureF,Min TemperatureF,Max Dew PointF,MeanDew PointF,Min DewpointF,Max Humidity, Mean Humidity, Min Humidity, Max Sea Level PressureIn, Mean Sea Level PressureIn, Min Sea Level PressureIn, Max VisibilityMiles, Mean VisibilityMiles, Min VisibilityMiles, Max Wind SpeedMPH, Mean Wind SpeedMPH, Max Gust SpeedMPH,PrecipitationIn, CloudCover, Events, WindDirDegrees
2012-8-1,82,68,55,70,62,55,100,82,52,29.91,29.84,29.77,10,7,1,13,3,21,0.01,1,,268
2012-8-2,79,68,57,64,59,55,100,75,44,29.91,29.87,29.81,10,8,0,12,5,21,0.00,1,Fog,335
2012-8-3,78,66,55,66,61,54,100,88,62,30.00,29.91,29.79,10,7,0,15,5,18,0.21,4,Fog-Rain-Thunderstorm,155
2012-8-4,73,64,57,64,60,53,100,87,55,29.93,29.78,29.70,10,9,3,16,7,28,0.42,6,Rain-Thunderstorm,258
2012-8-5,73,60,48,54,50,46,97,72,41,30.13,30.05,29.94,10,10,10,20,11,26,0.00,1,,309
2012-8-6,84,65,46,63,53,46,100,78,42,30.07,30.00,29.88,10,8,2,13,2,21,0.01,0,,292
2012-8-7,77,62,48,57,52,47,97,70,42,30.05,30.02,29.96,10,10,8,16,4,,0.00,1,,348
2012-8-8,73,64,55,60,57,54,97,81,57,30.08,30.04,30.01,10,10,10,6,1,,0.00,3,,236
2012-8-9,71,61,48,57,54,48,100,83,55,30.20,30.07,30.00,10,8,0,17,5,28,0.11,5,Fog-Rain,33
2012-8-10,75,60,44,54,48,43,100,77,34,30.25,30.19,30.12,10,8,0,9,4,,0.01,0,Fog,3
2012-8-11,77,59,41,59,47,41,100,86,41,30.14,30.10,30.03,10,5,0,7,0,,0.00,2,Fog,14
2012-8-12,75,60,48,56,52,46,100,78,46,30.03,30.01,29.97,10,8,1,9,1,,0.00,1,,316
2012-8-13,73,60,48,61,55,48,100,81,44,30.03,30.00,29.97,10,8,1,14,4,21,0.22,4,Rain-Thunderstorm,354
2012-8-14,75,58,42,55,47,41,100,90,41,30.01,29.96,29.89,10,4,0,5,0,,0.00,0,Fog,320
2012-8-15,79,60,42,66,52,41,100,89,53,29.91,29.81,29.68,10,6,0,13,2,22,0.28,3,Fog-Rain-Thunderstorm,211
2012-8-16,64,56,44,59,52,42,96,83,60,30.03,29.84,29.73,10,10,5,21,12,31,0.01,6,Rain,320
2012-8-17,70,54,37,49,43,35,100,74,40,30.10,30.06,30.01,10,9,2,13,3,17,0.00,1,,318
2012-8-18,75,56,39,57,49,38,100,85,43,30.01,29.99,29.94,10,6,0,14,2,26,0.09,3,Fog-Rain-Thunderstorm,347
2012-8-19,70,54,37,50,41,34,100,85,27,30.09,30.04,30.01,10,5,0,12,2,,0.00,1,Fog,358
2012-8-20,75,55,37,51,44,37,97,72,39,30.05,30.02,29.99,10,9,2,13,3,18,0.00,2,,324
2012-8-21,77,57,37,56,45,37,100,79,36,30.06,30.01,29.94,10,7,1,10,1,20,0.00,0,,256
2012-8-22,84,65,46,60,52,46,100,77,36,29.97,29.94,29.90,10,8,1,10,1,,0.00,0,,197
2012-8-23,81,68,55,66,61,54,96,79,56,29.93,29.85,29.79,10,10,6,12,6,20,0.00,1,Rain,163
2012-8-24,88,70,53,67,60,53,100,90,46,29.85,29.81,29.79,10,4,0,7,1,,0.01,2,Fog,199
2012-8-25,73,68,62,68,66,62,100,91,79,29.93,29.88,29.81,10,7,0,12,3,20,0.42,6,Fog-Rain,214
2012-8-26,80,67,53,65,58,44,100,79,29,30.03,29.94,29.91,10,7,0,14,3,22,0.00,4,Fog,265
2012-8-27,78,62,46,57,51,45,100,80,45,30.16,30.11,30.03,10,8,0,13,2,,0.00,1,Fog,357
2012-8-28,79,60,42,59,49,43,100,87,45,30.19,30.14,30.05,10,5,0,8,1,,0.00,1,Fog,176
2012-8-29,87,68,48,66,54,46,100,86,43,30.06,29.98,29.77,10,6,0,12,1,17,0.00,0,Fog,168
2012-8-30,84,68,51,66,58,49,100,75,44,29.96,29.79,29.69,10,9,2,16,5,22,0.01,0,,345
2012-8-31,82,60,39,51,43,39,100,76,23,30.18,30.09,29.98,10,6,1,10,1,17,0.00,0,,10